Weather in Robe

Australia     37°09′50″S   139°45′15″E
temp.,
°C
wind,
m/s
gust,
m/s
humid.,
%
clouds,
%
prec.,
mm/h
press.,
hPa
HPBL,
m
4 december, sat
sat401:30+13sw7769100 0.1 10211173
04:30+14sw7871100 0.2 10201193
07:30+15sw7969100 0.1 10211101
10:30+15ssw676829 0.3 1023945
13:30+16ssw66700 0.0 1022938
16:30+16ssw66736 0.0 1021858
19:30+15s67730 0.0 1022865
22:30+14se56783 0.0 1023599
5 december, sun
sun501:30+12se57820 0.0 1022467
04:30+11ese46840 0.0 1021284
07:30+12ese46760 0.0 1022274
10:30+15s44610 0.0 1022557
13:30+15s76620 0.0 1020420
16:30+15s88650 0.0 1018486
19:30+15sse89700 0.0 1017411
22:30+14se710705 0.0 1017303
6 december, mon
mon601:30+12ese56680 0.0 1015169
04:30+11e22740 0.0 1013103
07:30+13nnw22650 0.0 1013156
10:30+16wnw46625 0.0 1013293
13:30+16w78705 0.0 1013531
16:30+16wsw68725 0.0 1012538
19:30+15sw68780 0.0 1012665
22:30+15sw68815 0.0 1014666
7 december, tue
tue701:30+14ssw8875100 0.1 1013962
04:30+14ssw886879 0.2 10141071
07:30+13s7864100 0.1 10171112
10:30+14s775481 0.1 10181554
13:30+15ssw886010 0.1 10191438
16:30+14s995946 0.1 10191511
19:30+14s9105776 0.0 10201676
22:30+13sse8957100 0.0 10211754
8 december, wed
wed801:30+13sse8956100 0.1 10211626
04:30+13sse91056100 0.1 10201888
07:30+13sse9106277 0.1 10221407
10:30+14sse995411 0.8 10231414
13:30+14s1011596 0.0 10221468
16:30+14sse1112545 0.0 10221471
19:30+14sse10125912 0.0 10231610
22:30+13se911616 0.0 10231450